sat.trackr.live / text

‹ back to catalog

STARLINK-37031

NORAD 68172 · 2026-050F

PAYLOAD ACTIVE UNKNOWN

§ Identity

Operator
Country
US
Launch date
2026-03-14
Launch site
AFETR
Launch vehicle
Mass (kg)
RCS (m²)

Purposes: comms

External: N2YO · Heavens-Above · Gunter

§ Orbital elements

Epoch: 2026-05-25T02:00:24.977088Z

Period
93.58 min
Inclination
53.1594°
Eccentricity
0.0001207
Mean motion
15.38837125 rev/d
Perigee alt
448.7 km
Apogee alt
450.4 km
Semi-major
6,827.7 km
B*
7.1093e-4
RAAN
271.6116°
Arg perigee
74.7781°
Mean anomaly
285.3357°
Rev number
1,238

§ Raw data

STARLINK-370311 68172U 26050F   26145.08362242  .00027419  00000+0  71093-3 0  99972 68172  53.1594 271.6116 0001207  74.7781 285.3357 15.38837125 12381

JSON: /api/v1/satellites/68172 · /tle

For live sub-satellite position, see the globe view (requires WebGL).

§ Visibility from observer

Set your observer location to see the next 7 days of passes ≥ 10°. The values pass through the URL so the page stays shareable.

No JS? Fill the form by hand. The geolocation button needs JavaScript.